Year,Month,Day,Hour,Minute,Value (Times are PST for windgust in km/hr)
2008,08,29,00,00,1.60
2008,08,29,00,01,0.00
2008,08,29,00,02,1.60
2008,08,29,00,03,0.00
2008,08,29,00,04,1.60
2008,08,29,00,05,4.80
2008,08,29,00,06,3.20
2008,08,29,00,07,3.20
2008,08,29,00,08,3.20
2008,08,29,00,09,1.60
2008,08,29,00,10,4.80
2008,08,29,00,11,6.40
2008,08,29,00,12,4.80
2008,08,29,00,13,3.20
2008,08,29,00,14,6.40
2008,08,29,00,15,6.40
2008,08,29,00,16,4.80
2008,08,29,00,17,4.80
2008,08,29,00,18,3.20
2008,08,29,00,19,6.40
2008,08,29,00,20,4.80
2008,08,29,00,21,6.40
2008,08,29,00,22,8.10
2008,08,29,00,23,6.40
2008,08,29,00,24,4.80
2008,08,29,00,25,4.80
2008,08,29,00,26,8.10
2008,08,29,00,27,6.40
2008,08,29,00,28,6.40
2008,08,29,00,29,4.80
2008,08,29,00,30,6.40
2008,08,29,00,31,3.20
2008,08,29,00,32,4.80
2008,08,29,00,33,4.80
2008,08,29,00,34,1.60
2008,08,29,00,35,3.20
2008,08,29,00,36,3.20
2008,08,29,00,37,3.20
2008,08,29,00,38,6.40
2008,08,29,00,39,6.40
2008,08,29,00,40,8.10
2008,08,29,00,41,6.40
2008,08,29,00,42,9.60
2008,08,29,00,43,8.10
2008,08,29,00,44,8.10
2008,08,29,00,45,4.80
2008,08,29,00,46,8.10
2008,08,29,00,47,9.60
2008,08,29,00,48,6.40
2008,08,29,00,49,4.80
2008,08,29,00,50,6.40
2008,08,29,00,51,6.40
2008,08,29,00,52,8.10
2008,08,29,00,53,8.10
2008,08,29,00,54,6.40
2008,08,29,00,55,4.80
2008,08,29,00,56,4.80
2008,08,29,00,57,6.40
2008,08,29,00,58,4.80
2008,08,29,00,59,9.60
2008,08,29,01,00,4.80
2008,08,29,01,01,6.40
2008,08,29,01,02,4.80
2008,08,29,01,03,4.80
2008,08,29,01,04,6.40
2008,08,29,01,05,6.40
2008,08,29,01,06,8.10
2008,08,29,01,07,6.40
2008,08,29,01,08,6.40
2008,08,29,01,09,4.80
2008,08,29,01,10,3.20
2008,08,29,01,11,4.80
2008,08,29,01,12,1.60
2008,08,29,01,13,4.80
2008,08,29,01,14,4.80
2008,08,29,01,15,3.20
2008,08,29,01,16,1.60
2008,08,29,01,17,9.60
2008,08,29,01,18,6.40
2008,08,29,01,19,9.60
2008,08,29,01,20,9.60
2008,08,29,01,21,9.60
2008,08,29,01,22,9.60
2008,08,29,01,23,8.10
2008,08,29,01,24,9.60
2008,08,29,01,25,6.40
2008,08,29,01,26,6.40
2008,08,29,01,27,6.40
2008,08,29,01,28,8.10
2008,08,29,01,29,4.80
2008,08,29,01,30,4.80
2008,08,29,01,31,8.10
2008,08,29,01,32,6.40
2008,08,29,01,33,6.40
2008,08,29,01,34,6.40
2008,08,29,01,35,8.10
2008,08,29,01,36,8.10
2008,08,29,01,37,8.10
2008,08,29,01,38,8.10
2008,08,29,01,39,6.40
2008,08,29,01,40,8.10
2008,08,29,01,41,6.40
2008,08,29,01,42,4.80
2008,08,29,01,43,9.60
2008,08,29,01,44,6.40
2008,08,29,01,45,6.40
2008,08,29,01,46,8.10
2008,08,29,01,47,6.40
2008,08,29,01,48,8.10
2008,08,29,01,49,6.40
2008,08,29,01,50,3.20
2008,08,29,01,51,4.80
2008,08,29,01,52,4.80
2008,08,29,01,53,4.80
2008,08,29,01,54,8.10
2008,08,29,01,55,9.60
2008,08,29,01,56,4.80
2008,08,29,01,57,6.40
2008,08,29,01,58,4.80
2008,08,29,01,59,4.80
2008,08,29,02,00,3.20
2008,08,29,02,01,6.40
2008,08,29,02,02,6.40
2008,08,29,02,03,4.80
2008,08,29,02,04,4.80
2008,08,29,02,05,3.20
2008,08,29,02,06,4.80
2008,08,29,02,07,6.40
2008,08,29,02,08,9.60
2008,08,29,02,09,6.40
2008,08,29,02,10,4.80
2008,08,29,02,11,6.40
2008,08,29,02,12,4.80
2008,08,29,02,13,6.40
2008,08,29,02,14,4.80
2008,08,29,02,15,6.40
2008,08,29,02,16,6.40
2008,08,29,02,17,4.80
2008,08,29,02,18,3.20
2008,08,29,02,19,8.10
2008,08,29,02,20,11.30
2008,08,29,02,21,8.10
2008,08,29,02,22,6.40
2008,08,29,02,23,8.10
2008,08,29,02,24,8.10
2008,08,29,02,25,8.10
2008,08,29,02,26,6.40
2008,08,29,02,27,9.60
2008,08,29,02,28,6.40
2008,08,29,02,29,6.40
2008,08,29,02,30,8.10
2008,08,29,02,31,3.20
2008,08,29,02,32,1.60
2008,08,29,02,33,1.60
2008,08,29,02,34,4.80
2008,08,29,02,35,4.80
2008,08,29,02,36,4.80
2008,08,29,02,37,4.80
2008,08,29,02,38,6.40
2008,08,29,02,39,6.40
2008,08,29,02,40,8.10
2008,08,29,02,41,4.80
2008,08,29,02,42,6.40
2008,08,29,02,43,8.10
2008,08,29,02,44,6.40
2008,08,29,02,45,6.40
2008,08,29,02,46,6.40
2008,08,29,02,47,3.20
2008,08,29,02,48,4.80
2008,08,29,02,49,3.20
2008,08,29,02,50,4.80
2008,08,29,02,51,3.20
2008,08,29,02,52,4.80
2008,08,29,02,53,1.60
2008,08,29,02,54,9.60
2008,08,29,02,55,9.60
2008,08,29,02,56,1.60
2008,08,29,02,57,8.10
2008,08,29,02,58,11.30
2008,08,29,02,59,9.60
2008,08,29,03,00,8.10
2008,08,29,03,01,4.80
2008,08,29,03,02,1.60
2008,08,29,03,03,4.80
2008,08,29,03,04,8.10
2008,08,29,03,05,8.10
2008,08,29,03,06,4.80
2008,08,29,03,07,3.20
2008,08,29,03,08,6.40
2008,08,29,03,09,3.20
2008,08,29,03,10,6.40
2008,08,29,03,11,3.20
2008,08,29,03,12,1.60
2008,08,29,03,13,4.80
2008,08,29,03,14,4.80
2008,08,29,03,15,3.20
2008,08,29,03,16,4.80
2008,08,29,03,17,6.40
2008,08,29,03,18,4.80
2008,08,29,03,19,3.20
2008,08,29,03,20,3.20
2008,08,29,03,21,6.40
2008,08,29,03,22,4.80
2008,08,29,03,23,1.60
2008,08,29,03,24,6.40
2008,08,29,03,25,8.10
2008,08,29,03,26,4.80
2008,08,29,03,27,3.20
2008,08,29,03,28,11.30
2008,08,29,03,29,8.10
2008,08,29,03,30,9.60
2008,08,29,03,31,8.10
2008,08,29,03,32,8.10
2008,08,29,03,33,9.60
2008,08,29,03,34,8.10
2008,08,29,03,35,6.40
2008,08,29,03,36,8.10
2008,08,29,03,37,6.40
2008,08,29,03,38,8.10
2008,08,29,03,39,4.80
2008,08,29,03,40,8.10
2008,08,29,03,41,6.40
2008,08,29,03,42,4.80
2008,08,29,03,43,3.20
2008,08,29,03,44,6.40
2008,08,29,03,45,4.80
2008,08,29,03,46,1.60
2008,08,29,03,47,6.40
2008,08,29,03,48,3.20
2008,08,29,03,49,6.40
2008,08,29,03,50,4.80
2008,08,29,03,51,3.20
2008,08,29,03,52,1.60
2008,08,29,03,53,3.20
2008,08,29,03,54,4.80
2008,08,29,03,55,3.20
2008,08,29,03,56,3.20
2008,08,29,03,57,0.00
2008,08,29,03,58,0.00
2008,08,29,03,59,0.00
2008,08,29,04,00,0.00
2008,08,29,04,01,0.00
2008,08,29,04,02,0.00
2008,08,29,04,03,0.00
2008,08,29,04,04,0.00
2008,08,29,04,05,4.80
2008,08,29,04,06,3.20
2008,08,29,04,07,1.60
2008,08,29,04,08,1.60
2008,08,29,04,09,3.20
2008,08,29,04,10,3.20
2008,08,29,04,11,1.60
2008,08,29,04,12,4.80
2008,08,29,04,13,3.20
2008,08,29,04,14,3.20
2008,08,29,04,15,3.20
2008,08,29,04,16,3.20
2008,08,29,04,17,4.80
2008,08,29,04,18,4.80
2008,08,29,04,19,4.80
2008,08,29,04,20,4.80
2008,08,29,04,21,4.80
2008,08,29,04,22,4.80
2008,08,29,04,23,4.80
2008,08,29,04,24,6.40
2008,08,29,04,25,6.40
2008,08,29,04,26,4.80
2008,08,29,04,27,6.40
2008,08,29,04,28,6.40
2008,08,29,04,29,4.80
2008,08,29,04,30,0.00
2008,08,29,04,31,1.60
2008,08,29,04,32,4.80
2008,08,29,04,33,3.20
2008,08,29,04,34,4.80
2008,08,29,04,35,6.40
2008,08,29,04,36,4.80
2008,08,29,04,37,6.40
2008,08,29,04,38,6.40
2008,08,29,04,39,4.80
2008,08,29,04,40,4.80
2008,08,29,04,41,6.40
2008,08,29,04,42,3.20
2008,08,29,04,43,4.80
2008,08,29,04,44,4.80
2008,08,29,04,45,1.60
2008,08,29,04,46,0.00
2008,08,29,04,47,3.20
2008,08,29,04,48,4.80
2008,08,29,04,49,4.80
2008,08,29,04,50,8.10
2008,08,29,04,51,8.10
2008,08,29,04,52,4.80
2008,08,29,04,53,0.00
2008,08,29,04,54,6.40
2008,08,29,04,55,6.40
2008,08,29,04,56,6.40
2008,08,29,04,57,4.80
2008,08,29,04,58,4.80
2008,08,29,04,59,8.10
2008,08,29,05,00,4.80
2008,08,29,05,01,4.80
2008,08,29,05,02,4.80
2008,08,29,05,03,3.20
2008,08,29,05,04,3.20
2008,08,29,05,05,3.20
2008,08,29,05,06,4.80
2008,08,29,05,07,6.40
2008,08,29,05,08,4.80
2008,08,29,05,09,3.20
2008,08,29,05,10,1.60
2008,08,29,05,11,4.80
2008,08,29,05,12,1.60
2008,08,29,05,13,3.20
2008,08,29,05,14,4.80
2008,08,29,05,15,1.60
2008,08,29,05,16,0.00
2008,08,29,05,17,1.60
2008,08,29,05,18,3.20
2008,08,29,05,19,3.20
2008,08,29,05,20,9.60
2008,08,29,05,21,4.80
2008,08,29,05,22,4.80
2008,08,29,05,23,1.60
2008,08,29,05,24,0.00
2008,08,29,05,25,3.20
2008,08,29,05,26,4.80
2008,08,29,05,27,4.80
2008,08,29,05,28,0.00
2008,08,29,05,29,1.60
2008,08,29,05,30,1.60
2008,08,29,05,31,3.20
2008,08,29,05,32,3.20
2008,08,29,05,33,3.20
2008,08,29,05,34,1.60
2008,08,29,05,35,3.20
2008,08,29,05,36,0.00
2008,08,29,05,37,6.40
2008,08,29,05,38,4.80
2008,08,29,05,39,1.60
2008,08,29,05,40,4.80
2008,08,29,05,41,3.20
2008,08,29,05,42,3.20
2008,08,29,05,43,4.80
2008,08,29,05,44,3.20
2008,08,29,05,45,1.60
2008,08,29,05,46,1.60
2008,08,29,05,47,1.60
2008,08,29,05,48,3.20
2008,08,29,05,49,4.80
2008,08,29,05,50,1.60
2008,08,29,05,51,0.00
2008,08,29,05,52,4.80
2008,08,29,05,53,1.60
2008,08,29,05,54,3.20
2008,08,29,05,55,1.60
2008,08,29,05,56,1.60
2008,08,29,05,57,1.60
2008,08,29,05,58,4.80
2008,08,29,05,59,4.80
2008,08,29,06,00,4.80
2008,08,29,06,01,3.20
2008,08,29,06,02,4.80
2008,08,29,06,03,1.60
2008,08,29,06,04,0.00
2008,08,29,06,05,3.20
2008,08,29,06,06,4.80
2008,08,29,06,07,4.80
2008,08,29,06,08,4.80
2008,08,29,06,09,6.40
2008,08,29,06,10,3.20
2008,08,29,06,11,3.20
2008,08,29,06,12,1.60
2008,08,29,06,13,6.40
2008,08,29,06,14,6.40
2008,08,29,06,15,4.80
2008,08,29,06,16,4.80
2008,08,29,06,17,3.20
2008,08,29,06,18,6.40
2008,08,29,06,19,6.40
2008,08,29,06,20,4.80
2008,08,29,06,21,3.20
2008,08,29,06,22,8.10
2008,08,29,06,23,0.00
2008,08,29,06,24,1.60
2008,08,29,06,25,6.40
2008,08,29,06,26,6.40
2008,08,29,06,27,6.40
2008,08,29,06,28,6.40
2008,08,29,06,29,4.80
2008,08,29,06,30,6.40
2008,08,29,06,31,4.80
2008,08,29,06,32,6.40
2008,08,29,06,33,9.60
2008,08,29,06,34,8.10
2008,08,29,06,35,6.40
2008,08,29,06,36,6.40
2008,08,29,06,37,6.40
2008,08,29,06,38,8.10
2008,08,29,06,39,8.10
2008,08,29,06,40,8.10
2008,08,29,06,41,4.80
2008,08,29,06,42,4.80
2008,08,29,06,43,1.60
2008,08,29,06,44,3.20
2008,08,29,06,45,1.60
2008,08,29,06,46,4.80
2008,08,29,06,47,3.20
2008,08,29,06,48,8.10
2008,08,29,06,49,4.80
2008,08,29,06,50,8.10
2008,08,29,06,51,6.40
2008,08,29,06,52,3.20
2008,08,29,06,53,3.20
2008,08,29,06,54,1.60
2008,08,29,06,55,3.20
2008,08,29,06,56,4.80
2008,08,29,06,57,4.80
2008,08,29,06,58,6.40
2008,08,29,06,59,3.20
2008,08,29,07,00,6.40
2008,08,29,07,01,6.40
2008,08,29,07,02,4.80
2008,08,29,07,03,8.10
2008,08,29,07,04,8.10
2008,08,29,07,05,8.10
2008,08,29,07,06,4.80
2008,08,29,07,07,8.10
2008,08,29,07,08,4.80
2008,08,29,07,09,3.20
2008,08,29,07,10,4.80
2008,08,29,07,11,3.20
2008,08,29,07,12,3.20
2008,08,29,07,13,3.20
2008,08,29,07,14,1.60
2008,08,29,07,15,3.20
2008,08,29,07,16,6.40
2008,08,29,07,17,4.80
2008,08,29,07,18,4.80
2008,08,29,07,19,3.20
2008,08,29,07,20,3.20
2008,08,29,07,21,1.60
2008,08,29,07,22,0.00
2008,08,29,07,23,3.20
2008,08,29,07,24,1.60
2008,08,29,07,25,0.00
2008,08,29,07,26,4.80
2008,08,29,07,27,4.80
2008,08,29,07,28,3.20
2008,08,29,07,29,1.60
2008,08,29,07,30,3.20
2008,08,29,07,31,4.80
2008,08,29,07,32,3.20
2008,08,29,07,33,1.60
2008,08,29,07,34,3.20
2008,08,29,07,35,1.60
2008,08,29,07,36,1.60
2008,08,29,07,37,4.80
2008,08,29,07,38,1.60
2008,08,29,07,39,1.60
2008,08,29,07,40,0.00
2008,08,29,07,41,1.60
2008,08,29,07,42,0.00
2008,08,29,07,43,0.00
2008,08,29,07,44,3.20
2008,08,29,07,45,1.60
2008,08,29,07,46,3.20
2008,08,29,07,47,1.60
2008,08,29,07,48,1.60
2008,08,29,07,49,1.60
2008,08,29,07,50,0.00
2008,08,29,07,51,0.00
2008,08,29,07,52,0.00
2008,08,29,07,53,1.60
2008,08,29,07,54,1.60
2008,08,29,07,55,0.00
2008,08,29,07,56,4.80
2008,08,29,07,57,3.20
2008,08,29,07,58,0.00
2008,08,29,07,59,0.00
2008,08,29,08,00,0.00
2008,08,29,08,01,0.00
2008,08,29,08,02,0.00
2008,08,29,08,03,0.00
2008,08,29,08,04,0.00
2008,08,29,08,05,0.00
2008,08,29,08,06,0.00
2008,08,29,08,07,0.00
2008,08,29,08,08,0.00
2008,08,29,08,09,1.60
2008,08,29,08,10,0.00
2008,08,29,08,11,1.60
2008,08,29,08,12,1.60
2008,08,29,08,13,0.00
2008,08,29,08,14,1.60
2008,08,29,08,15,1.60
2008,08,29,08,16,0.00
2008,08,29,08,17,0.00
2008,08,29,08,18,0.00
2008,08,29,08,19,0.00
2008,08,29,08,20,0.00
2008,08,29,08,21,0.00
2008,08,29,08,22,0.00
2008,08,29,08,23,1.60
2008,08,29,08,24,0.00
2008,08,29,08,25,1.60
2008,08,29,08,26,0.00
2008,08,29,08,27,0.00
2008,08,29,08,28,1.60
2008,08,29,08,29,0.00
2008,08,29,08,30,1.60
2008,08,29,08,31,3.20
2008,08,29,08,32,1.60
2008,08,29,08,33,1.60
2008,08,29,08,34,0.00
2008,08,29,08,35,1.60
2008,08,29,08,36,3.20
2008,08,29,08,37,1.60
2008,08,29,08,38,0.00
2008,08,29,08,39,1.60
2008,08,29,08,40,0.00
2008,08,29,08,41,3.20
2008,08,29,08,42,3.20
2008,08,29,08,43,3.20
2008,08,29,08,44,0.00
2008,08,29,08,45,1.60
2008,08,29,08,46,0.00
2008,08,29,08,47,1.60
2008,08,29,08,48,1.60
2008,08,29,08,49,3.20
2008,08,29,08,50,1.60
2008,08,29,08,51,3.20
2008,08,29,08,52,3.20
2008,08,29,08,53,1.60
2008,08,29,08,54,3.20
2008,08,29,08,55,3.20
2008,08,29,08,56,4.80
2008,08,29,08,57,4.80
2008,08,29,08,58,6.40
2008,08,29,08,59,6.40
2008,08,29,09,00,6.40
2008,08,29,09,01,6.40
2008,08,29,09,02,6.40
2008,08,29,09,03,4.80
2008,08,29,09,04,4.80
2008,08,29,09,05,4.80
2008,08,29,09,06,3.20
2008,08,29,09,07,3.20
2008,08,29,09,08,3.20
2008,08,29,09,09,3.20
2008,08,29,09,10,6.40
2008,08,29,09,11,4.80
2008,08,29,09,12,4.80
2008,08,29,09,13,4.80
2008,08,29,09,14,4.80
2008,08,29,09,15,3.20
2008,08,29,09,16,3.20
2008,08,29,09,17,3.20
2008,08,29,09,18,1.60
2008,08,29,09,19,3.20
2008,08,29,09,20,3.20
2008,08,29,09,21,4.80
2008,08,29,09,22,3.20
2008,08,29,09,23,4.80
2008,08,29,09,24,1.60
2008,08,29,09,25,4.80
2008,08,29,09,26,4.80
2008,08,29,09,27,6.40
2008,08,29,09,28,4.80
2008,08,29,09,29,4.80
2008,08,29,09,30,3.20
2008,08,29,09,31,4.80
2008,08,29,09,32,3.20
2008,08,29,09,33,3.20
2008,08,29,09,34,3.20
2008,08,29,09,35,0.00
2008,08,29,09,36,4.80
2008,08,29,09,37,1.60
2008,08,29,09,38,1.60
2008,08,29,09,39,1.60
2008,08,29,09,40,4.80
2008,08,29,09,41,8.10
2008,08,29,09,42,8.10
2008,08,29,09,43,6.40
2008,08,29,09,44,1.60
2008,08,29,09,45,3.20
2008,08,29,09,46,6.40
2008,08,29,09,47,8.10
2008,08,29,09,48,6.40
2008,08,29,09,49,8.10
2008,08,29,09,50,9.60
2008,08,29,09,51,6.40
2008,08,29,09,52,8.10
2008,08,29,09,53,6.40
2008,08,29,09,54,3.20
2008,08,29,09,55,4.80
2008,08,29,09,56,1.60
2008,08,29,09,57,6.40
2008,08,29,09,58,6.40
2008,08,29,09,59,8.10
2008,08,29,10,00,6.40
2008,08,29,10,01,6.40
2008,08,29,10,02,8.10
2008,08,29,10,03,8.10
2008,08,29,10,04,8.10
2008,08,29,10,05,9.60
2008,08,29,10,06,9.60
2008,08,29,10,07,8.10
2008,08,29,10,08,8.10
2008,08,29,10,09,6.40
2008,08,29,10,10,4.80
2008,08,29,10,11,4.80
2008,08,29,10,12,8.10
2008,08,29,10,13,4.80
2008,08,29,10,14,1.60
2008,08,29,10,15,8.10
2008,08,29,10,16,8.10
2008,08,29,10,17,4.80
2008,08,29,10,18,11.30
2008,08,29,10,19,9.60
2008,08,29,10,20,9.60
2008,08,29,10,21,8.10
2008,08,29,10,22,4.80
2008,08,29,10,23,3.20
2008,08,29,10,24,9.60
2008,08,29,10,25,6.40
2008,08,29,10,26,9.60
2008,08,29,10,27,8.10
2008,08,29,10,28,9.60
2008,08,29,10,29,8.10
2008,08,29,10,30,9.60
2008,08,29,10,31,4.80
2008,08,29,10,32,6.40
2008,08,29,10,33,8.10
2008,08,29,10,34,6.40
2008,08,29,10,35,8.10
2008,08,29,10,36,9.60
2008,08,29,10,37,11.30
2008,08,29,10,38,14.50
2008,08,29,10,39,11.30
2008,08,29,10,40,14.50
2008,08,29,10,41,14.50
2008,08,29,10,42,14.50
2008,08,29,10,43,11.30
2008,08,29,10,44,11.30
2008,08,29,10,45,16.10
2008,08,29,10,46,14.50
2008,08,29,10,47,16.10
2008,08,29,10,48,11.30
2008,08,29,10,49,14.50
2008,08,29,10,50,14.50
2008,08,29,10,51,9.60
2008,08,29,10,52,8.10
2008,08,29,10,53,11.30
2008,08,29,10,54,12.90
2008,08,29,10,55,9.60
2008,08,29,10,56,9.60
2008,08,29,10,57,6.40
2008,08,29,10,58,11.30
2008,08,29,10,59,8.10
2008,08,29,11,00,8.10
2008,08,29,11,01,11.30
2008,08,29,11,02,11.30
2008,08,29,11,03,8.10
2008,08,29,11,04,14.50
2008,08,29,11,05,14.50
2008,08,29,11,06,14.50
2008,08,29,11,07,11.30
2008,08,29,11,08,9.60
2008,08,29,11,09,6.40
2008,08,29,11,10,8.10
2008,08,29,11,11,12.90
2008,08,29,11,12,14.50
2008,08,29,11,13,11.30
2008,08,29,11,14,9.60
2008,08,29,11,15,14.50
2008,08,29,11,16,14.50
2008,08,29,11,17,11.30
2008,08,29,11,18,9.60
2008,08,29,11,19,8.10
2008,08,29,11,20,11.30
2008,08,29,11,21,11.30
2008,08,29,11,22,9.60
2008,08,29,11,23,9.60
2008,08,29,11,24,11.30
2008,08,29,11,25,9.60
2008,08,29,11,26,12.90
2008,08,29,11,27,8.10
2008,08,29,11,28,6.40
2008,08,29,11,29,8.10
2008,08,29,11,30,14.50
2008,08,29,11,31,9.60
2008,08,29,11,32,9.60
2008,08,29,11,33,16.10
2008,08,29,11,34,8.10
2008,08,29,11,35,8.10
2008,08,29,11,36,11.30
2008,08,29,11,37,14.50
2008,08,29,11,38,11.30
2008,08,29,11,39,11.30
2008,08,29,11,40,11.30
2008,08,29,11,41,6.40
2008,08,29,11,42,8.10
2008,08,29,11,43,6.40
2008,08,29,11,44,6.40
2008,08,29,11,45,9.60
2008,08,29,11,46,4.80
2008,08,29,11,47,6.40
2008,08,29,11,48,6.40
2008,08,29,11,49,9.60
2008,08,29,11,50,11.30
2008,08,29,11,51,11.30
2008,08,29,11,52,14.50
2008,08,29,11,53,17.70
2008,08,29,11,54,11.30
2008,08,29,11,55,6.40
2008,08,29,11,56,11.30
2008,08,29,11,57,16.10
2008,08,29,11,58,8.10
2008,08,29,11,59,16.10
2008,08,29,12,00,6.40
2008,08,29,12,01,9.60
2008,08,29,12,02,8.10
2008,08,29,12,03,6.40
2008,08,29,12,04,11.30
2008,08,29,12,05,9.60
2008,08,29,12,06,9.60
2008,08,29,12,07,9.60
2008,08,29,12,08,16.10
2008,08,29,12,09,11.30
2008,08,29,12,10,9.60
2008,08,29,12,11,11.30
2008,08,29,12,12,9.60
2008,08,29,12,13,9.60
2008,08,29,12,14,8.10
2008,08,29,12,15,6.40
2008,08,29,12,16,8.10
2008,08,29,12,17,4.80
2008,08,29,12,18,4.80
2008,08,29,12,19,6.40
2008,08,29,12,20,19.30
2008,08,29,12,21,19.30
2008,08,29,12,22,16.10
2008,08,29,12,23,11.30
2008,08,29,12,24,11.30
2008,08,29,12,25,9.60
2008,08,29,12,26,17.70
2008,08,29,12,27,16.10
2008,08,29,12,28,16.10
2008,08,29,12,29,8.10
2008,08,29,12,30,14.50
2008,08,29,12,31,16.10
2008,08,29,12,32,9.60
2008,08,29,12,33,19.30
2008,08,29,12,34,9.60
2008,08,29,12,35,14.50
2008,08,29,12,36,16.10
2008,08,29,12,37,17.70
2008,08,29,12,38,12.90
2008,08,29,12,39,8.10
2008,08,29,12,40,16.10
2008,08,29,12,41,9.60
2008,08,29,12,42,8.10
2008,08,29,12,43,14.50
2008,08,29,12,44,11.30
2008,08,29,12,45,11.30
2008,08,29,12,46,14.50
2008,08,29,12,47,16.10
2008,08,29,12,48,14.50
2008,08,29,12,49,11.30
2008,08,29,12,50,6.40
2008,08,29,12,51,14.50
2008,08,29,12,52,14.50
2008,08,29,12,53,14.50
2008,08,29,12,54,11.30
2008,08,29,12,55,6.40
2008,08,29,12,56,8.10
2008,08,29,12,57,8.10
2008,08,29,12,58,6.40
2008,08,29,12,59,9.60
2008,08,29,13,00,9.60
2008,08,29,13,01,9.60
2008,08,29,13,02,9.60
2008,08,29,13,03,9.60
2008,08,29,13,04,8.10
2008,08,29,13,05,9.60
2008,08,29,13,06,9.60
2008,08,29,13,07,9.60
2008,08,29,13,08,11.30
2008,08,29,13,09,16.10
2008,08,29,13,10,16.10
2008,08,29,13,11,11.30
2008,08,29,13,12,9.60
2008,08,29,13,13,14.50
2008,08,29,13,14,9.60
2008,08,29,13,15,6.40
2008,08,29,13,16,6.40
2008,08,29,13,17,9.60
2008,08,29,13,18,14.50
2008,08,29,13,19,22.50
2008,08,29,13,20,37.00
2008,08,29,13,21,29.00
2008,08,29,13,22,35.40
2008,08,29,13,23,22.50
2008,08,29,13,24,20.90
2008,08,29,13,25,29.00
2008,08,29,13,26,25.70
2008,08,29,13,27,27.40
2008,08,29,13,28,35.40
2008,08,29,13,29,38.60
2008,08,29,13,30,38.60
2008,08,29,13,31,30.60
2008,08,29,13,32,30.60
2008,08,29,13,33,38.60
2008,08,29,13,34,48.30
2008,08,29,13,35,30.60
2008,08,29,13,36,35.40
2008,08,29,13,37,29.00
2008,08,29,13,38,22.50
2008,08,29,13,39,32.20
2008,08,29,13,40,41.80
2008,08,29,13,41,33.80
2008,08,29,13,42,32.20
2008,08,29,13,43,33.80
2008,08,29,13,44,43.50
2008,08,29,13,45,24.20
2008,08,29,13,46,40.20
2008,08,29,13,47,37.00
2008,08,29,13,48,37.00
2008,08,29,13,49,30.60
2008,08,29,13,50,35.40
2008,08,29,13,51,48.30
2008,08,29,13,52,41.80
2008,08,29,13,53,43.50
2008,08,29,13,54,49.90
2008,08,29,13,55,48.30
2008,08,29,13,56,43.50
2008,08,29,13,57,38.60
2008,08,29,13,58,46.70
2008,08,29,13,59,43.50
2008,08,29,14,00,32.20
2008,08,29,14,01,48.30
2008,08,29,14,02,38.60
2008,08,29,14,03,32.20
2008,08,29,14,04,43.50
2008,08,29,14,05,43.50
2008,08,29,14,06,29.00
2008,08,29,14,07,32.20
2008,08,29,14,08,49.90
2008,08,29,14,09,45.10
2008,08,29,14,10,51.50
2008,08,29,14,11,51.50
2008,08,29,14,12,45.10
2008,08,29,14,13,49.90
2008,08,29,14,14,41.80
2008,08,29,14,15,53.10
2008,08,29,14,16,46.70
2008,08,29,14,17,43.50
2008,08,29,14,18,53.10
2008,08,29,14,19,48.30
2008,08,29,14,20,43.50
2008,08,29,14,21,40.20
2008,08,29,14,22,46.70
2008,08,29,14,23,38.60
2008,08,29,14,24,32.20
2008,08,29,14,25,38.60
2008,08,29,14,26,43.50
2008,08,29,14,27,35.40
2008,08,29,14,28,41.80
2008,08,29,14,29,38.60
2008,08,29,14,30,35.40
2008,08,29,14,31,37.00
2008,08,29,14,32,37.00
2008,08,29,14,33,22.50
2008,08,29,14,34,40.20
2008,08,29,14,35,30.60
2008,08,29,14,36,40.20
2008,08,29,14,37,38.60
2008,08,29,14,38,45.10
2008,08,29,14,39,33.80
2008,08,29,14,40,35.40
2008,08,29,14,41,35.40
2008,08,29,14,42,40.20
2008,08,29,14,43,32.20
2008,08,29,14,44,22.50
2008,08,29,14,45,29.00
2008,08,29,14,46,40.20
2008,08,29,14,47,40.20
2008,08,29,14,48,38.60
2008,08,29,14,49,45.10
2008,08,29,14,50,40.20
2008,08,29,14,51,35.40
2008,08,29,14,52,38.60
2008,08,29,14,53,49.90
2008,08,29,14,54,35.40
2008,08,29,14,55,38.60
2008,08,29,14,56,46.70
2008,08,29,14,57,45.10
2008,08,29,14,58,48.30
2008,08,29,14,59,53.10
2008,08,29,15,00,32.20
2008,08,29,15,01,40.20
2008,08,29,15,02,35.40
2008,08,29,15,03,37.00
2008,08,29,15,04,51.50
2008,08,29,15,05,43.50
2008,08,29,15,06,43.50
2008,08,29,15,07,38.60
2008,08,29,15,08,37.00
2008,08,29,15,09,48.30
2008,08,29,15,10,48.30
2008,08,29,15,11,40.20
2008,08,29,15,12,46.70
2008,08,29,15,13,37.00
2008,08,29,15,14,38.60
2008,08,29,15,15,33.80
2008,08,29,15,16,38.60
2008,08,29,15,17,25.70
2008,08,29,15,18,25.70
2008,08,29,15,19,33.80
2008,08,29,15,20,27.40
2008,08,29,15,21,25.70
2008,08,29,15,22,46.70
2008,08,29,15,23,33.80
2008,08,29,15,24,40.20
2008,08,29,15,25,32.20
2008,08,29,15,26,29.00
2008,08,29,15,27,38.60
2008,08,29,15,28,37.00
2008,08,29,15,29,41.80
2008,08,29,15,30,43.50
2008,08,29,15,31,45.10
2008,08,29,15,32,41.80
2008,08,29,15,33,33.80
2008,08,29,15,34,37.00
2008,08,29,15,35,46.70
2008,08,29,15,36,33.80
2008,08,29,15,37,38.60
2008,08,29,15,38,41.80
2008,08,29,15,39,49.90
2008,08,29,15,40,43.50
2008,08,29,15,41,43.50
2008,08,29,15,42,32.20
2008,08,29,15,43,37.00
2008,08,29,15,44,22.50
2008,08,29,15,45,40.20
2008,08,29,15,46,33.80
2008,08,29,15,47,45.10
2008,08,29,15,48,40.20
2008,08,29,15,49,27.40
2008,08,29,15,50,41.80
2008,08,29,15,51,37.00
2008,08,29,15,52,41.80
2008,08,29,15,53,40.20
2008,08,29,15,54,32.20
2008,08,29,15,55,38.60
2008,08,29,15,56,46.70
2008,08,29,15,57,35.40
2008,08,29,15,58,38.60
2008,08,29,15,59,46.70
2008,08,29,16,00,46.70
2008,08,29,16,01,46.70
2008,08,29,16,02,40.20
2008,08,29,16,03,54.70
2008,08,29,16,04,41.80
2008,08,29,16,05,53.10
2008,08,29,16,06,35.40
2008,08,29,16,07,40.20
2008,08,29,16,08,43.50
2008,08,29,16,09,46.70
2008,08,29,16,10,48.30
2008,08,29,16,11,41.80
2008,08,29,16,12,40.20
2008,08,29,16,13,32.20
2008,08,29,16,14,33.80
2008,08,29,16,15,25.70
2008,08,29,16,16,29.00
2008,08,29,16,17,30.60
2008,08,29,16,18,33.80
2008,08,29,16,19,30.60
2008,08,29,16,20,38.60
2008,08,29,16,21,33.80
2008,08,29,16,22,46.70
2008,08,29,16,23,41.80
2008,08,29,16,24,41.80
2008,08,29,16,25,35.40
2008,08,29,16,26,49.90
2008,08,29,16,27,43.50
2008,08,29,16,28,40.20
2008,08,29,16,29,33.80
2008,08,29,16,30,43.50
2008,08,29,16,31,32.20
2008,08,29,16,32,32.20
2008,08,29,16,33,38.60
2008,08,29,16,34,40.20
2008,08,29,16,35,45.10
2008,08,29,16,36,20.90
2008,08,29,16,37,24.20
2008,08,29,16,38,30.60
2008,08,29,16,39,37.00
2008,08,29,16,40,32.20
2008,08,29,16,41,17.70
2008,08,29,16,42,30.60
2008,08,29,16,43,25.70
2008,08,29,16,44,30.60
2008,08,29,16,45,24.20
2008,08,29,16,46,37.00
2008,08,29,16,47,32.20
2008,08,29,16,48,29.00
2008,08,29,16,49,33.80
2008,08,29,16,50,32.20
2008,08,29,16,51,40.20
2008,08,29,16,52,33.80
2008,08,29,16,53,37.00
2008,08,29,16,54,33.80
2008,08,29,16,55,25.70
2008,08,29,16,56,30.60
2008,08,29,16,57,30.60
2008,08,29,16,58,32.20
2008,08,29,16,59,30.60
2008,08,29,17,00,25.70
2008,08,29,17,01,29.00
2008,08,29,17,02,27.40
2008,08,29,17,03,30.60
2008,08,29,17,04,32.20
2008,08,29,17,05,30.60
2008,08,29,17,06,32.20
2008,08,29,17,07,27.40
2008,08,29,17,08,33.80
2008,08,29,17,09,33.80
2008,08,29,17,10,45.10
2008,08,29,17,11,35.40
2008,08,29,17,12,38.60
2008,08,29,17,13,35.40
2008,08,29,17,14,32.20
2008,08,29,17,15,37.00
2008,08,29,17,16,33.80
2008,08,29,17,17,33.80
2008,08,29,17,18,27.40
2008,08,29,17,19,33.80
2008,08,29,17,20,33.80
2008,08,29,17,21,24.20
2008,08,29,17,22,25.70
2008,08,29,17,23,22.50
2008,08,29,17,24,30.60
2008,08,29,17,25,22.50
2008,08,29,17,26,30.60
2008,08,29,17,27,30.60
2008,08,29,17,28,32.20
2008,08,29,17,29,24.20
2008,08,29,17,30,27.40
2008,08,29,17,31,30.60
2008,08,29,17,32,33.80
2008,08,29,17,33,32.20
2008,08,29,17,34,24.20
2008,08,29,17,35,32.20
2008,08,29,17,36,24.20
2008,08,29,17,37,29.00
2008,08,29,17,38,27.40
2008,08,29,17,39,20.90
2008,08,29,17,40,27.40
2008,08,29,17,41,17.70
2008,08,29,17,42,20.90
2008,08,29,17,43,24.20
2008,08,29,17,44,24.20
2008,08,29,17,45,27.40
2008,08,29,17,46,32.20
2008,08,29,17,47,25.70
2008,08,29,17,48,35.40
2008,08,29,17,49,25.70
2008,08,29,17,50,20.90